Airfield :
LOGIN :

Register | Disclaimer

   EN    FR    IT 

 










Legend :    VFR   Marginal VFR   IFR   Intensive IFR   Very Intensive IFR
Visi :
Ceiling :
>= 8 km
>= 3000ft
5 to 8 km
1000 to 3000 ft
1500m to 5 km
500 to 1000 ft
800 to 1500m
200 to 500 ft
< 800m
< 200 ft
Symbols :   Thunderstorms  Fog  Heavy snow  Heavy precipitations  Wind > 20 kt
SIGMETs :     Misc.  Thunderstorms  Icing  Turbulence  Mountain Waves  Volcanic Ashes







- Airport Elevation : 751 ft
- IATA code : ENC
- Download approach charts


LFSN - Nancy Essey

CURRENT METAR :
  • 240630Z AUTO 00000KT CAVOK 12/10 Q1020

EXPIRED METARs :
  • 240600Z AUTO VRB02KT 6000 SCT044 11/10 Q1020
  • 240530Z AUTO VRB01KT 6000 BKN046 09/09 Q1020
  • 240500Z AUTO 13002KT 4100 BR FEW045 08/08 Q1020
  • 240430Z AUTO 00000KT 4900 BR OVC043 08/08 Q1020
  • 240400Z AUTO 14003KT 5000 BR SCT047 08/08 Q1020

Expired Forecast.
No reported NOTAMs for that airfield.



MET'MAP, your aeronautical weather chart ! - Copyright ORBIFLY December 2007 - Disclaimer

ORBIFLY MET'MAP TEAM :

Programming & Development : Alexandra Zaïnal
Concept & Development : Baudouin d'Aumeries
Co-Development & Prog : Marc-Olivier Méhu
Technical & hardware support : Manuel Goepfert

Contact : metmap@orbifly.com




SOURCES & CREDITS :

   NOAA